Regional Weather Roundup
Issued by NWS Northern Indiana

Home | Current Version | Previous Version | Graphics & Text | Print | Product List | Glossary On
Versions: 1 2 3 4 5 6 7 8 9 10 11 12 13 14 15 16 17 18 19 20 21 22 23 24 25 26 27 28 29 30 31 32 33 34 35 36 37 38 39 40 41 42 43 44 45 46 47 48 49 50
000
ASUS43 KIWX 242300
RWRIWX

KIWX WEATHER ROUNDUP
NATIONAL WEATHER SERVICE NORTHERN INDIANA
700 PM EDT THU APR 24 2014

NOTE: "FAIR" INDICATES FEW OR NO CLOUDS BELOW 12,000 FEET WITH NO
SIGNIFICANT WEATHER AND/OR OBSTRUCTIONS TO VISIBILITY.

* THESE STATIONS ARE NOT UNDER NWS QUALITY CONTROL. THEY ALSO MAY NOT
  REPORT WEATHER SUCH AS PRECIPITATION OR FOG.

INZ001>027-250000-
NORTHERN INDIANA

CITY           SKY/WX    TMP DP  RH WIND       PRES   REMARKS
GARY*          CLOUDY    63  25  23 SE24G36   29.74F
VALPARAISO     CLOUDY    59  22  24 SE20G28   29.77F
SOUTH BEND     CLOUDY    59  23  25 SE24G30   29.82F
ELKHART*       CLOUDY    57  21  24 SE15G24   29.84F
GOSHEN         CLOUDY    58  25  28 SE16G25   29.84F
ANGOLA*        SUNNY     54  27  35 SE15      29.90S
FORT WAYNE     CLOUDY    58  22  24 E20       29.88F

$$
INZ028>050-250000-
CENTRAL INDIANA

CITY           SKY/WX    TMP DP  RH WIND       PRES   REMARKS
LAFAYETTE      CLOUDY    63  35  35 SE13G22   29.75F
KOKOMO*        CLOUDY    61  28  29 SE17      29.82F
MUNCIE*        CLOUDY    61  24  24 SE12      29.85F
INDIANAPOLIS   CLOUDY    64  36  35 SE14      29.79F

$$
MIZ043>046-050>051-056>058-064>065-071>073-077>080-250000-
SOUTHWEST LOWER MICHIGAN

CITY           SKY/WX    TMP DP  RH WIND       PRES   REMARKS
BATTLE CREEK   CLOUDY    54  23  30 SE18G25   29.88F
BENTON HARBOR  PTSUNNY   56  25  30 SE21G33   29.78F
COLDWATER*     CLOUDY    53  20  28 SE17      29.89S
HILLSDALE*     CLOUDY    51  22  32 E17G23    29.91F
HOLLAND        PTSUNNY   58  24  27 SE16G25   29.82F
GRAND RAPIDS   PTSUNNY   55  25  31 E26G36    29.86F
KALAMAZOO      CLOUDY    55  23  28 SE15G24   29.87F
STURGIS*       CLOUDY    55  25  30 SE20G26   29.86F
THREE RIVERS*  FAIR      56  22  26 SE16G22   29.87F

$$
OHZ001>008-015>018-024>025-250000-
NORTHWEST OHIO

CITY           SKY/WX    TMP DP  RH WIND       PRES   REMARKS
DEFIANCE       CLOUDY    56  26  31 E14G22    29.92F
FINDLAY        LGT RAIN  55  31  39 E12       29.92F
TOLEDO EXPRESS LGT RAIN  48  24  39 E15       29.96F
TOLEDO METCALF CLOUDY    48  22  35 E13G22    30.00F
LIMA           CLOUDY    58  24  27 SE13      29.91F

$$
&&



USA.gov is the U.S. government's official web portal to all federal, state and local government web resources and services.